This is the latest recevied weather packets stored in our database for station/object K5DLF-13. If no packets are shown the sender has not sent any weather packets the latest 10 day(s).
| Time | Temp. | Humidity | Pressure | Rain* | Wind** | Luminosity | Snow |
|---|---|---|---|---|---|---|---|
| 1777925699 | 26.67° C | 69% | 1010.8 hPa | 0 mm | - | 274 W/m² | - |
| 1777925399 | 26.67° C | 66% | 1010.8 hPa | 0 mm | - | 258 W/m² | - |
| 1777925100 | 27.22° C | 67% | 1010.8 hPa | 0 mm | - | 360 W/m² | - |
| 1777924800 | 27.22° C | 67% | 1010.8 hPa | 0 mm | - | 360 W/m² | - |
| 1777924500 | 27.22° C | 64% | 1010.9 hPa | 0 mm | - | 290 W/m² | - |
| 1777924200 | 27.22° C | 68% | 1010.8 hPa | 0 mm | - | 304 W/m² | - |
| 1777923899 | 27.22° C | 65% | 1011.1 hPa | 0 mm | - | 304 W/m² | - |
| 1777923600 | 27.78° C | 65% | 1011.1 hPa | 0 mm | - | 475 W/m² | - |
| 1777923300 | 27.78° C | 65% | 1011.4 hPa | 0 mm | - | 269 W/m² | - |
| 1777923000 | 27.78° C | 67% | 1011.4 hPa | 0 mm | - | 991 W/m² | - |
| 1777922700 | 27.78° C | 63% | 1011.3 hPa | 0 mm | - | 378 W/m² | - |
| 1777922400 | 27.78° C | 65% | 1011.4 hPa | 0 mm | - | 1044 W/m² | - |
| 1777922100 | 27.78° C | 65% | 1011.3 hPa | 0 mm | - | 366 W/m² | - |
| 1777921800 | 27.22° C | 65% | 1011.3 hPa | 0 mm | - | 1129 W/m² | - |
| 1777921500 | 27.78° C | 67% | 1011.5 hPa | 0 mm | - | 1039 W/m² | - |
| 1777921200 | 27.78° C | 65% | 1011.5 hPa | 0 mm | - | 345 W/m² | - |
| 1777920900 | 27.78° C | 65% | 1011.5 hPa | 0 mm | - | 339 W/m² | - |
| 1777920600 | 27.78° C | 63% | 1011.6 hPa | 0 mm | - | 1048 W/m² | - |
| 1777920300 | 27.78° C | 66% | 1011.5 hPa | 0 mm | - | 1097 W/m² | - |
| 1777920000 | 27.78° C | 65% | 1011.5 hPa | 0 mm | - | 360 W/m² | - |
| 1777919700 | 27.78° C | 64% | 1011.6 hPa | 0 mm | - | 1072 W/m² | - |
| 1777919400 | 27.78° C | 65% | 1011.6 hPa | 0 mm | - | 983 W/m² | - |
| 1777919100 | 27.78° C | 66% | 1011.8 hPa | 0 mm | - | 281 W/m² | - |
| 1777918800 | 27.78° C | 67% | 1011.8 hPa | 0 mm | - | 1063 W/m² | - |
| 1777918500 | 27.22° C | 68% | 1012 hPa | 0 mm | - | 1095 W/m² | - |
* Rain latest hour (hover to see other rain measurements)
** Current wind speed in m/s (hover to see current wind gust speed)